STARLINK-11272, 60723

Orbit data source: Space-Track

STARLINK-11272, 60723 is a payload satellite owned by SpaceX/Seattle (US) in LEO that was launched on Wed, 28 Aug 2024 UTC via an FALCON 9 launch vehicle from the Air Force Eastern Test Range (AFETR). Payload-class satellites include a variety of spacecraft equipped with specific instruments for various scientific and technological missions. These include communications satellites like Starlink; space stations such as the ISS; scientific satellites like the Hubble; Earth observation satellites from companies like Planet Labs, Umbra, and HawkEye 360; GPS; miniature CubeSats for education and research; and military/defense satellites.

Loading next visibility...
Identifier
60723, 2024-152D
Orbit
LEO
Country
Flag of USUS
Related business
Manufacturer
SpaceX/Seattle
Mission
Operational Commercial Communications
Bus & Motor
STARLINK V2MD, Unknown motor
Mass
960 kg wet, ~910 kg dry
Launch date (UTC)
2024-08-28 (1 year ago)
Launch vehicle
FALCON 9
Launch site
Air Force Eastern Test Range (AFETR)
Object type
Payload
Rocket body
Debris
Shape & HBR
Box + 2 Pan, 18.1 m
Radar Cross Section
36.964 m², Large (>1 m²)

Expand to show TLE details & history
Last TLE update: 20 hours ago

TLE from 20 hours ago
0 STARLINK-11272
1 60723U 24152D   26033.73395085  .00000505  00000-0  90240-5 0  9996
2 60723  53.1586 288.6657 0001183  64.3577 295.7563 15.69717662 83340
Epoch: 2026-02-02T17:36Z
TLE epoch observation values (Epoch: 2026-02-02T17:36:53.353Z)
Latitude
-0.00002°
Longitude
-108.48161°
Altitude
360.273 km
Speed
7.695 km/s
True Right ascension
19h 14m 39s
True Declination
0° 00' 00"
Sunlit
Object was in daylight at epoch
Visualization orbit readout
Latitude
Unknown
Longitude
Unknown
Altitude
Unknown
Speed
Unknown
Apparent Right ascension
Unknown
Apparent Declination
Unknown
Sunlit
N/A
Visualization observer readout
Local Sidereal Time
15:16:12
Azimuth
Unknown
Elevation
Unknown
Doppler factor
Unknown
Orbital elements
Apogee altitude
360.763 km
Perigee altitude
359.169 km
Semi-major axis
6,738.103 km
Eccentricity
0.00012
Inclination
53.1586°
RAAN
288.6657°
Arg. of periapsis
64.3577°
True anomaly
295.74409°
Mean anomaly
295.7563°
Eccentric anomaly
295.75019°
Mean motion
3.92407 °/min
Orbital period
91.74 mins
BSTAR
0.000009024
Loading maneuver chart data...
Computing Atmospheric mass density...
Loading historical data...
Loading historical data...
Loading historical data...
Loading historical data...
Loading historical data...
Loading historical data...
Loading historical data...

Documentation

Showing up to 5 results
|